星链-30990 (STARLINK-30990 )

导读

STARLINK-30990是美国SpaceX公司星链(Starlink)星座的卫星,于2023年12月3日由猎鹰9号火箭发射入轨。星链项目旨在构建全球卫星互联网星座,提供覆盖偏远区域、海事航空、应急通信等场景的高速宽带服务。该卫星属于星链二代批量部署的一部分,将进一步扩容星座容量,增强全球网络覆盖能力,助力星链商业化扩张。

基本信息
目录编号:
58478
目录名称:
STARLINK-30990
国际标识:
2023-186F
轨道中心:
EARTH
卫星名称:
星链-30990
卫星全名:
星链-30990 (STARLINK-30990 )
卫星状态:
在轨 (已飞行928 天)
发射日期:
2023-12-03 UTC
国别 :
美国 (US)
星等 :
--
轨道信息
数据来源 国际轨道数据 AOE轨道数据
星历时间 2026-06-17T22:09:30+0800
17小时前
查看轨道信息
2026-06-17T07:00:00+0800
1天前
查看轨道信息
半长轴 6861.202km 6861.145km
偏心率 0.0001143 0.0000021
轨道倾角 43.001° 42.999°
近地点辐角 263.645° 172.022°
升交点赤经 222.961° 226.534°
平近点角 96.427° 310.680°
近地点 482.28km 482.993km
远地点 483.85km 483.023km
周期 94.267分钟 94.266分钟
每日圈数 15.27575 15.27594
详细信息
固有亮度:
5
最大亮度:
0.3
卫星平台:
Starlink v2.0 mini
覆盖范围:
全球
运营商:
太空探索技术公司
运营商所在国:
美国
制造商(研发单位):
太空探索技术公司
制造商所在国:
美国
使用方式:
暂无
卫星简介
星链(Starlink)计划是由太空探索技术公司(SpaceX)提出的一个巨型低轨卫星互联网星座项目,计划在2019年至2024年间在太空搭建由约1.2万颗卫星组成的“星链”网络,其中1584颗将部署在地球上空550千米处的近地轨道,并从2020年开始工作。该卫星仍在工作。
2D轨道图
3D轨道图
轨道高度分析图
轨道倾角分析图
轨道综合分析图
查看轨道综合分析图